Location: Bucaritos
(10.0779°N, 67.0369°W)
Time: 10:10:42
(UTC+00:00)

ARIANE 44L R/B - Pass Details

Date: 27 June 2022
Orbit: 297 x 31422 km, 7.4° (Epoch: 17 August)

Event Time Altitude Azimuth Distance (km) Brightness Sun altitude
Rises 15:23:54 0° 260° (W) 16,237 9.6 69.2°
Reaches altitude 10° 15:40:00 10° 260° (W) 18,619 10.0 72.0°
Drops below altitude 10° 20:27:03 10° 270° (W) 33,916 12.6 32.4°
Maximum altitude 23:31:30 63° 196° (SSW) 1,720 4.7 -9.5°
Enters shadow 23:35:56 13° 115° (ESE) 2,152 4.6 -10.5°
